This is the latest recevied weather packets stored in our database for station/object EA3HRE-13. If no packets are shown the sender has not sent any weather packets the latest 10 day(s).
| Time | Temp. | Humidity | Pressure | Rain* | Wind** | Luminosity | Snow |
|---|---|---|---|---|---|---|---|
| 1787743451 | 28.89° C | 100% | 1011.7 hPa | 0 mm | - | - | - |
| 1787742851 | 28.89° C | 100% | 1011.9 hPa | 0 mm | - | - | - |
| 1787742251 | 28.89° C | 100% | 1012.3 hPa | 0 mm | - | - | - |
| 1787741651 | 28.33° C | 100% | 1012.4 hPa | 0 mm | - | - | - |
| 1787741051 | 28.33° C | 100% | 1012.4 hPa | 0 mm | - | - | - |
| 1787740451 | 28.33° C | 100% | 1012.3 hPa | 0 mm | - | - | - |
| 1787739850 | 28.33° C | 100% | 1011.8 hPa | 0 mm | - | - | - |
| 1787739250 | 27.78° C | 100% | 1012.1 hPa | 0 mm | - | - | - |
| 1787738650 | 26.67° C | 100% | 1012.5 hPa | 0 mm | - | - | - |
| 1787738050 | 26.11° C | 100% | 1013 hPa | 0 mm | - | - | - |
| 1787737450 | 26.11° C | 100% | 1013.5 hPa | 0 mm | - | - | - |
| 1787736850 | 26.11° C | 100% | 1013.7 hPa | 0 mm | - | - | - |
| 1787736250 | 26.11° C | 100% | 1012.5 hPa | 0 mm | - | - | - |
| 1787735620 | 25.56° C | 100% | 1011.9 hPa | 0 mm | - | - | - |
| 1787735020 | 24.44° C | 100% | 1010.9 hPa | 0 mm | - | - | - |
| 1787734420 | 24.44° C | 100% | 1010.6 hPa | 0 mm | - | - | - |
| 1787733820 | 23.89° C | 100% | 1011.1 hPa | 0 mm | - | - | - |
| 1787733219 | 24.44° C | 100% | 1011.6 hPa | 0 mm | - | - | - |
| 1787732619 | 23.89° C | 100% | 1011.4 hPa | 0 mm | - | - | - |
| 1787732019 | 24.44° C | 100% | 1012 hPa | 0 mm | - | - | - |
| 1787731419 | 24.44° C | 100% | 1012.4 hPa | 0 mm | - | - | - |
| 1787730819 | 24.44° C | 100% | 1013.2 hPa | 0 mm | - | - | - |
| 1787730219 | 24.44° C | 100% | 1012 hPa | 0 mm | - | - | - |
| 1787729619 | 23.89° C | 100% | 1011.3 hPa | 0 mm | - | - | - |
| 1787729019 | 23.89° C | 100% | 1010.8 hPa | 0 mm | - | - | - |
* Rain latest hour (hover to see other rain measurements)
** Current wind speed in m/s (hover to see current wind gust speed)